| time (UTC) | temp F | wind direction | speed knots | gust knots | rain 1hr in | rain 24hr in | rain mn in | humidity % | barometer mb |
| 20260831042012 | 75 | 11 | 0.0 | 0.0 | 0.00 | 0.05 | 0.04 | 93 | 1017.5 |
| 20260831041530 | 76 | 11 | 0.0 | 0.0 | 0.00 | 0.05 | 0.04 | 93 | 1017.6 |
| 20260831041004 | 76 | 11 | 0.0 | 0.0 | 0.00 | 0.05 | 0.04 | 92 | 1017.5 |
| 20260831040504 | 76 | 11 | 0.0 | 0.0 | 0.00 | 0.05 | 0.04 | 92 | 1017.6 |
| 20260831040008 | 76 | 11 | 0.0 | 0.0 | 0.00 | 0.05 | 0.04 | 92 | 1017.6 |
| 20260831035503 | 76 | 11 | 0.0 | 0.0 | 0.00 | 0.05 | 0.04 | 92 | 1017.7 |
| 20260831035004 | 76 | 11 | 0.0 | 0.0 | 0.00 | 0.05 | 0.04 | 92 | 1017.7 |
| 20260831034515 | 76 | 11 | 0.0 | 0.0 | 0.00 | 0.05 | 0.04 | 91 | 1017.8 |
| 20260831034006 | 77 | 11 | 0.0 | 0.0 | 0.00 | 0.05 | 0.04 | 91 | 1017.9 |
| 20260831033508 | 77 | 11 | 0.0 | 0.0 | 0.00 | 0.05 | 0.04 | 90 | 1018.0 |
| 20260831033018 | 77 | 11 | 0.0 | 0.0 | 0.00 | 0.06 | 0.04 | 90 | 1018.0 |
| 20260831032509 | 77 | 11 | 0.0 | 0.0 | 0.00 | 0.06 | 0.04 | 90 | 1018.0 |
| 20260831032011 | 77 | 11 | 0.0 | 0.0 | 0.00 | 0.06 | 0.04 | 90 | 1018.0 |
| 20260831031539 | 77 | 11 | 0.0 | 0.0 | 0.00 | 0.06 | 0.04 | 89 | 1017.9 |
| 20260831031012 | 77 | 11 | 0.0 | 0.0 | 0.00 | 0.06 | 0.04 | 89 | 1017.8 |
| 20260831030512 | 77 | 11 | 0.0 | 0.0 | 0.00 | 0.06 | 0.04 | 89 | 1017.8 |
| 20260831030007 | 77 | 92 | 0.0 | 0.0 | 0.00 | 0.06 | 0.04 | 90 | 1017.8 |
| 20260831025502 | 78 | 92 | 0.0 | 0.0 | 0.00 | 0.06 | 0.04 | 89 | 1017.7 |
| 20260831025004 | 78 | 92 | 0.0 | 0.0 | 0.00 | 0.06 | 0.04 | 90 | 1017.9 |
| 20260831024510 | 78 | 92 | 0.0 | 0.0 | 0.00 | 0.06 | 0.04 | 89 | 1017.9 |
| 20260831024007 | 78 | 92 | 0.0 | 0.0 | 0.00 | 0.06 | 0.04 | 89 | 1017.9 |
| 20260831023504 | 78 | 92 | 0.0 | 0.0 | 0.00 | 0.06 | 0.04 | 90 | 1017.8 |
| 20260831023017 | 78 | 92 | 0.0 | 0.0 | 0.00 | 0.06 | 0.04 | 90 | 1017.8 |
| 20260831022510 | 78 | 92 | 0.0 | 0.0 | 0.00 | 0.07 | 0.04 | 90 | 1017.8 |
| 20260831022009 | 78 | 92 | 0.0 | 0.0 | 0.00 | 0.07 | 0.04 | 90 | 1017.8 |
| 20260831021525 | 79 | 92 | 0.0 | 0.0 | 0.00 | 0.07 | 0.04 | 89 | 1017.8 |
| 20260831021011 | 79 | 92 | 0.0 | 0.0 | 0.00 | 0.07 | 0.04 | 89 | 1017.7 |
| 20260831020512 | 79 | 92 | 0.0 | 0.0 | 0.00 | 0.07 | 0.04 | 89 | 1017.7 |
| 20260831020027 | 79 | 92 | 0.0 | 0.0 | 0.00 | 0.07 | 0.04 | 89 | 1017.7 |
| 20260831015513 | 79 | 92 | 0.0 | 0.0 | 0.00 | 0.07 | 0.04 | 89 | 1017.7 |
| 20260831015003 | 79 | 92 | 0.0 | 1.7 | 0.00 | 0.08 | 0.04 | 88 | 1017.7 |
| 20260831014508 | 79 | 92 | 0.0 | 2.6 | 0.00 | 0.08 | 0.04 | 88 | 1017.6 |
| 20260831014005 | 79 | 114 | 0.9 | 2.6 | 0.00 | 0.08 | 0.04 | 88 | 1017.5 |
| 20260831013504 | 80 | 90 | 0.0 | 1.7 | 0.00 | 0.08 | 0.04 | 88 | 1017.4 |
| 20260831013014 | 80 | 130 | 0.0 | 1.7 | 0.00 | 0.08 | 0.04 | 88 | 1017.4 |
| 20260831012508 | 80 | 130 | 0.0 | 1.7 | 0.00 | 0.08 | 0.04 | 87 | 1017.5 |
| 20260831012007 | 80 | 130 | 0.9 | 1.7 | 0.00 | 0.09 | 0.04 | 86 | 1017.3 |
| 20260831011527 | 81 | 123 | 0.0 | 0.0 | 0.00 | 0.09 | 0.04 | 86 | 1017.2 |
| 20260831011012 | 81 | 123 | 0.0 | 0.0 | 0.00 | 0.09 | 0.04 | 85 | 1017.3 |
| 20260831010517 | 81 | 171 | 0.0 | 2.6 | 0.00 | 0.10 | 0.04 | 84 | 1017.4 |
| 20260831010035 | 81 | 171 | 0.0 | 3.5 | 0.00 | 0.10 | 0.04 | 83 | 1017.3 |
| 20260831005514 | 82 | 170 | 0.9 | 6.1 | 0.00 | 0.10 | 0.04 | 83 | 1017.4 |
| 20260831005014 | 82 | 166 | 1.7 | 6.1 | 0.00 | 0.10 | 0.04 | 82 | 1017.4 |
| 20260831004508 | 82 | 165 | 3.5 | 6.1 | 0.00 | 0.11 | 0.04 | 81 | 1017.4 |
| 20260831004003 | 82 | 167 | 0.9 | 6.1 | 0.00 | 0.11 | 0.04 | 82 | 1017.4 |
| 20260831003505 | 82 | 196 | 1.7 | 4.3 | 0.00 | 0.11 | 0.04 | 82 | 1017.4 |
| 20260831003013 | 82 | 178 | 0.9 | 2.6 | 0.00 | 0.11 | 0.04 | 82 | 1017.4 |
| 20260831002507 | 82 | 185 | 0.9 | 3.5 | 0.00 | 0.12 | 0.04 | 82 | 1017.3 |
| 20260831002007 | 83 | 143 | 0.9 | 5.2 | 0.00 | 0.12 | 0.04 | 81 | 1017.4 |
| 20260831001517 | 83 | 160 | 2.6 | 5.2 | 0.00 | 0.12 | 0.04 | 81 | 1017.2 |
| 20260831001013 | 83 | 166 | 2.6 | 5.2 | 0.00 | 0.12 | 0.04 | 79 | 1017.3 |
| 20260831000512 | 84 | 123 | 2.6 | 7.0 | 0.00 | 0.13 | 0.04 | 79 | 1017.2 |
| 20260831000028 | 85 | 171 | 2.6 | 7.0 | 0.00 | 0.13 | 0.04 | 78 | 1017.1 |
| 20260830235512 | 85 | 66 | 0.0 | 0.0 | 0.00 | 0.13 | 0.04 | 78 | 1016.9 |
| 20260830235016 | 86 | 66 | 0.0 | 2.6 | 0.00 | 0.13 | 0.04 | 78 | 1016.7 |
| 20260830234543 | 86 | 61 | 0.0 | 2.6 | 0.00 | 0.13 | 0.04 | 77 | 1016.5 |
| 20260830234018 | 86 | 60 | 0.9 | 3.5 | 0.00 | 0.13 | 0.04 | 75 | 1016.4 |
| 20260830233505 | 86 | 49 | 0.0 | 3.5 | 0.00 | 0.13 | 0.04 | 75 | 1016.4 |
| 20260830233011 | 87 | 41 | 0.9 | 3.5 | 0.00 | 0.13 | 0.04 | 74 | 1016.3 |
| 20260830232506 | 87 | 55 | 0.9 | 3.5 | 0.00 | 0.13 | 0.04 | 74 | 1016.4 |
| 20260830232009 | 87 | 34 | 0.9 | 2.6 | 0.00 | 0.13 | 0.04 | 74 | 1016.3 |
| 20260830231517 | 87 | 24 | 0.9 | 3.5 | 0.00 | 0.13 | 0.04 | 73 | 1016.3 |
| 20260830231012 | 87 | 49 | 0.0 | 3.5 | 0.00 | 0.13 | 0.04 | 73 | 1016.3 |
| 20260830230510 | 87 | 27 | 0.9 | 3.5 | 0.00 | 0.13 | 0.04 | 73 | 1016.3 |
| 20260830230028 | 87 | 51 | 0.0 | 2.6 | 0.00 | 0.13 | 0.04 | 74 | 1016.2 |
| 20260830225513 | 87 | 36 | 0.9 | 1.7 | 0.00 | 0.13 | 0.04 | 74 | 1016.2 |
| 20260830225012 | 87 | 5 | 0.9 | 2.6 | 0.00 | 0.13 | 0.04 | 74 | 1016.2 |
| 20260830224527 | 87 | 17 | 0.9 | 2.6 | 0.00 | 0.13 | 0.04 | 72 | 1016.2 |
| 20260830224015 | 87 | 11 | 0.0 | 2.6 | 0.00 | 0.13 | 0.04 | 74 | 1016.2 |
| 20260830223516 | 87 | 24 | 0.0 | 2.6 | 0.00 | 0.13 | 0.04 | 73 | 1016.2 |
| 20260830223043 | 87 | 15 | 0.0 | 2.6 | 0.00 | 0.13 | 0.04 | 73 | 1016.2 |
| 20260830222502 | 88 | 34 | 0.9 | 2.6 | 0.00 | 0.13 | 0.04 | 72 | 1016.1 |
| 20260830222007 | 88 | 35 | 0.0 | 1.7 | 0.00 | 0.13 | 0.04 | 72 | 1016.1 |
| 20260830221525 | 88 | 36 | 0.0 | 3.5 | 0.00 | 0.13 | 0.04 | 71 | 1016.1 |
| 20260830221010 | 88 | 20 | 1.7 | 4.3 | 0.00 | 0.13 | 0.04 | 69 | 1016.0 |
| 20260830220509 | 88 | 42 | 0.9 | 7.0 | 0.00 | 0.13 | 0.04 | 67 | 1016.0 |
| 20260830220024 | 89 | 76 | 2.6 | 7.0 | 0.00 | 0.13 | 0.04 | 68 | 1016.0 |
| 20260830215509 | 89 | 20 | 1.7 | 5.2 | 0.00 | 0.13 | 0.04 | 68 | 1016.0 |
| 20260830215014 | 89 | 44 | 1.7 | 5.2 | 0.00 | 0.13 | 0.04 | 67 | 1016.0 |
| 20260830214530 | 89 | 14 | 1.7 | 7.0 | 0.00 | 0.13 | 0.04 | 68 | 1016.0 |
| 20260830214015 | 89 | 76 | 2.6 | 7.0 | 0.00 | 0.13 | 0.04 | 67 | 1016.0 |
| 20260830213514 | 89 | 87 | 2.6 | 6.1 | 0.00 | 0.13 | 0.04 | 68 | 1016.0 |
| 20260830213032 | 89 | 81 | 1.7 | 6.1 | 0.00 | 0.13 | 0.04 | 69 | 1016.0 |
| 20260830212518 | 89 | 42 | 1.7 | 4.3 | 0.00 | 0.13 | 0.04 | 67 | 1016.1 |
| 20260830212016 | 89 | 360 | 3.5 | 4.3 | 0.00 | 0.13 | 0.04 | 68 | 1016.2 |
| 20260830211514 | 89 | 31 | 1.7 | 3.5 | 0.00 | 0.13 | 0.04 | 71 | 1016.2 |
| 20260830211008 | 89 | 352 | 1.7 | 9.6 | 0.00 | 0.13 | 0.04 | 68 | 1016.2 |
| 20260830210509 | 90 | 5 | 3.5 | 9.6 | 0.00 | 0.13 | 0.04 | 66 | 1016.2 |
| 20260830210016 | 91 | 49 | 4.3 | 7.8 | 0.00 | 0.13 | 0.04 | 62 | 1016.2 |
| 20260830205512 | 91 | 88 | 3.5 | 7.0 | 0.00 | 0.13 | 0.04 | 63 | 1016.3 |
| 20260830205013 | 90 | 58 | 0.0 | 8.7 | 0.00 | 0.13 | 0.04 | 60 | 1016.4 |
| 20260830204536 | 91 | 82 | 3.5 | 8.7 | 0.00 | 0.13 | 0.04 | 60 | 1016.4 |
| 20260830204013 | 91 | 63 | 3.5 | 9.6 | 0.00 | 0.13 | 0.04 | 66 | 1016.4 |
| 20260830203503 | 90 | 94 | 3.5 | 9.6 | 0.00 | 0.13 | 0.04 | 62 | 1016.4 |
| 20260830203006 | 90 | 64 | 6.1 | 8.7 | 0.00 | 0.13 | 0.04 | 61 | 1016.4 |
| 20260830202504 | 90 | 94 | 7.0 | 8.7 | 0.00 | 0.13 | 0.04 | 64 | 1016.5 |
| 20260830202004 | 90 | 73 | 2.6 | 8.7 | 0.00 | 0.13 | 0.04 | 66 | 1016.5 |
| 20260830201511 | 90 | 69 | 5.2 | 8.7 | 0.00 | 0.13 | 0.04 | 65 | 1016.6 |
| 20260830201010 | 89 | 98 | 4.3 | 8.7 | 0.00 | 0.13 | 0.04 | 66 | 1016.6 |
| 20260830200507 | 89 | 101 | 0.9 | 7.0 | 0.00 | 0.13 | 0.04 | 65 | 1016.7 |
| 20260830200015 | 89 | 80 | 1.7 | 7.0 | 0.00 | 0.13 | 0.04 | 63 | 1016.6 |
| 20260830195509 | 89 | 78 | 2.6 | 6.1 | 0.00 | 0.13 | 0.04 | 65 | 1016.8 |
| 20260830195010 | 89 | 86 | 2.6 | 7.8 | 0.00 | 0.13 | 0.04 | 65 | 1016.8 |
| 20260830194524 | 88 | 115 | 3.5 | 7.8 | 0.00 | 0.13 | 0.04 | 64 | 1016.9 |
| 20260830194015 | 88 | 94 | 2.6 | 8.7 | 0.00 | 0.13 | 0.04 | 65 | 1017.0 |
| 20260830193514 | 88 | 111 | 5.2 | 8.7 | 0.00 | 0.13 | 0.04 | 66 | 1017.0 |
| 20260830193031 | 88 | 103 | 5.2 | 7.8 | 0.00 | 0.13 | 0.04 | 68 | 1017.1 |
| 20260830192502 | 88 | 87 | 3.5 | 6.1 | 0.00 | 0.13 | 0.04 | 70 | 1017.1 |
| 20260830192002 | 88 | 102 | 0.9 | 2.6 | 0.00 | 0.13 | 0.04 | 71 | 1017.4 |
| 20260830191508 | 87 | 75 | 0.9 | 3.5 | 0.00 | 0.13 | 0.04 | 74 | 1017.6 |
| 20260830191004 | 87 | 96 | 0.9 | 4.3 | 0.00 | 0.13 | 0.04 | 74 | 1017.7 |
| 20260830190508 | 87 | 78 | 0.9 | 7.0 | 0.00 | 0.13 | 0.04 | 73 | 1017.9 |
| 20260830190019 | 87 | 91 | 2.6 | 7.0 | 0.00 | 0.13 | 0.04 | 70 | 1017.9 |
| 20260830185507 | 87 | 63 | 1.7 | 7.0 | 0.00 | 0.13 | 0.04 | 71 | 1017.8 |
| 20260830185009 | 88 | 29 | 2.6 | 7.0 | 0.00 | 0.13 | 0.04 | 72 | 1017.9 |
| 20260830184523 | 88 | 53 | 0.9 | 7.8 | 0.00 | 0.13 | 0.04 | 71 | 1017.9 |
| 20260830184011 | 88 | 45 | 3.5 | 7.8 | 0.00 | 0.13 | 0.04 | 69 | 1018.0 |
| 20260830183513 | 89 | 74 | 4.3 | 7.8 | 0.00 | 0.13 | 0.04 | 70 | 1018.0 |
| 20260830183028 | 89 | 25 | 3.5 | 8.7 | 0.00 | 0.13 | 0.04 | 66 | 1018.1 |
| 20260830182514 | 89 | 80 | 2.6 | 8.7 | 0.00 | 0.13 | 0.04 | 67 | 1018.1 |
| 20260830182015 | 89 | 82 | 5.2 | 8.7 | 0.00 | 0.13 | 0.04 | 67 | 1018.1 |
| 20260830181507 | 89 | 149 | 2.6 | 8.7 | 0.00 | 0.13 | 0.04 | 68 | 1018.3 |
| 20260830181003 | 88 | 131 | 5.2 | 10.4 | 0.00 | 0.13 | 0.04 | 66 | 1018.3 |
| 20260830180506 | 88 | 107 | 7.8 | 10.4 | 0.00 | 0.13 | 0.04 | 66 | 1018.2 |
| 20260830180017 | 88 | 140 | 5.2 | 9.6 | 0.00 | 0.13 | 0.04 | 70 | 1018.3 |
| 20260830175506 | 88 | 74 | 3.5 | 8.7 | 0.00 | 0.13 | 0.04 | 68 | 1018.3 |
| 20260830175013 | 87 | 63 | 5.2 | 8.7 | 0.00 | 0.13 | 0.04 | 69 | 1018.4 |
| 20260830174520 | 88 | 88 | 4.3 | 7.0 | 0.00 | 0.13 | 0.04 | 70 | 1018.4 |
| 20260830174008 | 88 | 124 | 3.5 | 8.7 | 0.00 | 0.13 | 0.04 | 69 | 1018.5 |
| 20260830173515 | 88 | 71 | 4.3 | 8.7 | 0.00 | 0.13 | 0.04 | 70 | 1018.5 |
| 20260830173025 | 88 | 122 | 4.3 | 9.6 | 0.00 | 0.13 | 0.04 | 69 | 1018.5 |
| 20260830172514 | 88 | 110 | 2.6 | 9.6 | 0.00 | 0.13 | 0.04 | 68 | 1018.5 |
| 20260830172014 | 87 | 168 | 1.7 | 10.4 | 0.00 | 0.13 | 0.04 | 71 | 1018.5 |
| 20260830171531 | 87 | 121 | 7.8 | 10.4 | 0.00 | 0.13 | 0.04 | 69 | 1018.6 |
| 20260830171004 | 87 | 98 | 7.8 | 9.6 | 0.00 | 0.13 | 0.04 | 70 | 1018.6 |
| 20260830170502 | 87 | 96 | 5.2 | 10.4 | 0.00 | 0.13 | 0.04 | 71 | 1018.6 |
| 20260830170010 | 87 | 138 | 5.2 | 13.9 | 0.00 | 0.13 | 0.04 | 72 | 1018.7 |
| 20260830165502 | 87 | 61 | 8.7 | 13.9 | 0.00 | 0.13 | 0.04 | 71 | 1018.9 |
| 20260830165006 | 87 | 80 | 4.3 | 13.0 | 0.00 | 0.13 | 0.04 | 70 | 1018.9 |
| 20260830164541 | 87 | 125 | 7.8 | 13.0 | 0.00 | 0.13 | 0.04 | 70 | 1019.2 |
| 20260830164011 | 87 | 76 | 3.5 | 8.7 | 0.00 | 0.13 | 0.04 | 72 | 1019.3 |
| 20260830163508 | 87 | 83 | 4.3 | 8.7 | 0.00 | 0.13 | 0.04 | 75 | 1019.4 |
| 20260830163025 | 86 | 74 | 4.3 | 9.6 | 0.00 | 0.13 | 0.04 | 73 | 1019.4 |
| 20260830162511 | 86 | 113 | 7.0 | 9.6 | 0.00 | 0.13 | 0.04 | 74 | 1019.5 |
| 20260830162013 | 86 | 97 | 3.5 | 10.4 | 0.00 | 0.13 | 0.04 | 73 | 1019.5 |
| 20260830161528 | 86 | 99 | 6.1 | 10.4 | 0.00 | 0.13 | 0.04 | 74 | 1019.6 |
| 20260830161014 | 86 | 101 | 5.2 | 8.7 | 0.00 | 0.13 | 0.04 | 76 | 1019.6 |
| 20260830160519 | 85 | 49 | 4.3 | 8.7 | 0.00 | 0.13 | 0.04 | 75 | 1019.7 |
| 20260830160009 | 85 | 138 | 6.1 | 8.7 | 0.00 | 0.13 | 0.04 | 77 | 1019.7 |
| 20260830155508 | 85 | 142 | 5.2 | 8.7 | 0.00 | 0.13 | 0.04 | 75 | 1019.7 |
| 20260830155007 | 85 | 82 | 6.1 | 8.7 | 0.00 | 0.13 | 0.04 | 77 | 1019.7 |
| 20260830154524 | 85 | 84 | 5.2 | 8.7 | 0.00 | 0.13 | 0.04 | 76 | 1019.8 |
| 20260830154008 | 84 | 89 | 6.1 | 9.6 | 0.00 | 0.13 | 0.04 | 79 | 1019.7 |
| 20260830153509 | 84 | 86 | 5.2 | 9.6 | 0.00 | 0.13 | 0.04 | 79 | 1019.7 |
| 20260830153023 | 84 | 112 | 6.1 | 8.7 | 0.00 | 0.13 | 0.04 | 80 | 1019.7 |
| 20260830152510 | 83 | 82 | 5.2 | 8.7 | 0.00 | 0.13 | 0.04 | 80 | 1019.7 |
| 20260830152013 | 83 | 104 | 5.2 | 7.8 | 0.00 | 0.13 | 0.04 | 79 | 1019.8 |
| 20260830151528 | 83 | 90 | 4.3 | 7.8 | 0.00 | 0.13 | 0.04 | 79 | 1019.7 |
| 20260830151013 | 83 | 93 | 5.2 | 8.7 | 0.00 | 0.13 | 0.04 | 81 | 1019.5 |
| 20260830150517 | 83 | 84 | 3.5 | 8.7 | 0.00 | 0.13 | 0.04 | 81 | 1019.6 |
| 20260830150037 | 82 | 96 | 5.2 | 8.7 | 0.00 | 0.13 | 0.04 | 82 | 1019.5 |
| 20260830145516 | 82 | 100 | 5.2 | 8.7 | 0.00 | 0.13 | 0.04 | 81 | 1019.5 |
| 20260830145006 | 82 | 113 | 5.2 | 7.8 | 0.00 | 0.13 | 0.04 | 81 | 1019.7 |
| 20260830144514 | 82 | 98 | 2.6 | 7.8 | 0.00 | 0.13 | 0.04 | 84 | 1019.6 |
| 20260830144007 | 81 | 63 | 4.3 | 7.8 | 0.00 | 0.13 | 0.04 | 85 | 1019.5 |
| 20260830143506 | 81 | 79 | 3.5 | 7.8 | 0.00 | 0.13 | 0.04 | 86 | 1019.5 |
| 20260830143019 | 80 | 70 | 5.2 | 7.8 | 0.00 | 0.13 | 0.04 | 86 | 1019.5 |
| 20260830142514 | 80 | 96 | 3.5 | 7.8 | 0.00 | 0.13 | 0.04 | 87 | 1019.4 |
| 20260830142012 | 80 | 88 | 4.3 | 9.6 | 0.00 | 0.13 | 0.04 | 88 | 1019.5 |
| 20260830141527 | 79 | 111 | 6.1 | 9.6 | 0.00 | 0.13 | 0.04 | 88 | 1019.5 |
| 20260830141011 | 79 | 81 | 7.0 | 8.7 | 0.00 | 0.13 | 0.04 | 88 | 1019.5 |
| 20260830140517 | 79 | 52 | 5.2 | 8.7 | 0.00 | 0.13 | 0.04 | 88 | 1019.5 |
| 20260830140030 | 79 | 40 | 2.6 | 7.0 | 0.00 | 0.13 | 0.04 | 89 | 1019.6 |
| 20260830135517 | 78 | 96 | 3.5 | 7.0 | 0.00 | 0.13 | 0.04 | 90 | 1019.5 |
| 20260830135017 | 77 | 121 | 3.5 | 7.0 | 0.00 | 0.13 | 0.04 | 90 | 1019.4 |
| 20260830134534 | 77 | 55 | 3.5 | 7.0 | 0.00 | 0.13 | 0.04 | 91 | 1019.5 |
| 20260830134008 | 76 | 92 | 2.6 | 5.2 | 0.00 | 0.13 | 0.04 | 91 | 1019.5 |
| 20260830133509 | 76 | 69 | 3.5 | 5.2 | 0.00 | 0.13 | 0.04 | 92 | 1019.5 |
| 20260830133023 | 76 | 62 | 0.9 | 3.5 | 0.00 | 0.13 | 0.04 | 93 | 1019.4 |
| 20260830132508 | 75 | 65 | 0.9 | 3.5 | 0.00 | 0.13 | 0.04 | 94 | 1019.5 |
| 20260830132011 | 75 | 52 | 0.0 | 3.5 | 0.00 | 0.13 | 0.04 | 94 | 1019.4 |
| 20260830131536 | 74 | 58 | 0.9 | 3.5 | 0.00 | 0.13 | 0.04 | 94 | 1019.5 |
| 20260830131014 | 74 | 63 | 0.9 | 3.5 | 0.00 | 0.13 | 0.04 | 95 | 1019.5 |
| 20260830130517 | 74 | 74 | 0.9 | 3.5 | 0.00 | 0.13 | 0.04 | 95 | 1019.4 |
| 20260830130028 | 74 | 49 | 0.9 | 5.2 | 0.00 | 0.13 | 0.04 | 95 | 1019.4 |
| 20260830125515 | 74 | 76 | 2.6 | 5.2 | 0.00 | 0.13 | 0.04 | 95 | 1019.4 |
| 20260830125017 | 74 | 80 | 2.6 | 4.3 | 0.00 | 0.13 | 0.04 | 96 | 1019.2 |
| 20260830124531 | 74 | 86 | 2.6 | 4.3 | 0.00 | 0.13 | 0.04 | 96 | 1019.1 |
| 20260830124017 | 74 | 111 | 0.9 | 2.6 | 0.00 | 0.13 | 0.04 | 97 | 1019.0 |
| 20260830123510 | 73 | 92 | 0.9 | 2.6 | 0.00 | 0.13 | 0.04 | 97 | 1019.0 |
| 20260830123016 | 73 | 46 | 0.0 | 3.5 | 0.01 | 0.14 | 0.04 | 97 | 1019.0 |
| 20260830122508 | 73 | 47 | 0.9 | 3.5 | 0.01 | 0.14 | 0.04 | 97 | 1019.0 |
| 20260830122009 | 73 | 90 | 1.7 | 2.6 | 0.01 | 0.14 | 0.04 | 97 | 1018.9 |
| 20260830121522 | 73 | 61 | 1.7 | 2.6 | 0.01 | 0.14 | 0.04 | 97 | 1018.9 |
| 20260830121010 | 73 | 34 | 0.0 | 2.6 | 0.01 | 0.14 | 0.04 | 97 | 1018.8 |
| 20260830120514 | 73 | 75 | 0.9 | 2.6 | 0.01 | 0.14 | 0.04 | 97 | 1018.8 |
| 20260830120031 | 73 | 51 | 0.9 | 2.6 | 0.01 | 0.14 | 0.04 | 97 | 1018.8 |
| 20260830115516 | 73 | 76 | 0.9 | 2.6 | 0.01 | 0.14 | 0.04 | 97 | 1018.9 |
| 20260830115007 | 73 | 82 | 0.9 | 2.6 | 0.01 | 0.14 | 0.04 | 97 | 1018.9 |
| 20260830114509 | 72 | 74 | 0.9 | 3.5 | 0.01 | 0.14 | 0.04 | 97 | 1018.8 |
| 20260830114006 | 72 | 54 | 0.0 | 3.5 | 0.01 | 0.14 | 0.04 | 97 | 1018.7 |
| 20260830113509 | 72 | 65 | 0.9 | 2.6 | 0.01 | 0.14 | 0.04 | 97 | 1018.6 |
| 20260830113015 | 72 | 71 | 0.9 | 2.6 | 0.00 | 0.13 | 0.03 | 97 | 1018.7 |
| 20260830112509 | 72 | 46 | 0.0 | 2.6 | 0.00 | 0.13 | 0.03 | 97 | 1018.6 |
| 20260830112008 | 72 | 33 | 0.9 | 2.6 | 0.00 | 0.13 | 0.03 | 97 | 1018.5 |
| 20260830111523 | 72 | 51 | 0.0 | 1.7 | 0.00 | 0.13 | 0.03 | 97 | 1018.4 |
| 20260830111012 | 72 | 56 | 0.0 | 1.7 | 0.00 | 0.13 | 0.03 | 97 | 1018.4 |
| 20260830110512 | 72 | 61 | 0.9 | 1.7 | 0.00 | 0.13 | 0.03 | 97 | 1018.4 |
| 20260830110031 | 72 | 41 | 0.0 | 2.6 | 0.00 | 0.13 | 0.03 | 97 | 1018.4 |
| 20260830105514 | 72 | 16 | 0.0 | 2.6 | 0.00 | 0.13 | 0.03 | 97 | 1018.2 |
| 20260830105015 | 72 | 21 | 0.9 | 2.6 | 0.00 | 0.13 | 0.03 | 97 | 1018.1 |
| 20260830104533 | 72 | 48 | 0.9 | 2.6 | 0.00 | 0.13 | 0.03 | 97 | 1018.0 |
| 20260830104004 | 73 | 34 | 0.9 | 2.6 | 0.00 | 0.13 | 0.03 | 97 | 1018.0 |
| 20260830103504 | 73 | 42 | 0.9 | 2.6 | 0.00 | 0.13 | 0.03 | 97 | 1017.8 |
| 20260830103021 | 73 | 28 | 0.0 | 2.6 | 0.00 | 0.13 | 0.03 | 97 | 1017.8 |
| 20260830102504 | 73 | 74 | 0.0 | 2.6 | 0.00 | 0.13 | 0.03 | 97 | 1017.7 |
| 20260830102004 | 73 | 71 | 0.0 | 2.6 | 0.00 | 0.13 | 0.03 | 97 | 1017.8 |
| 20260830101520 | 73 | 34 | 0.9 | 2.6 | 0.00 | 0.13 | 0.03 | 97 | 1017.8 |
| 20260830101013 | 73 | 67 | 0.9 | 2.6 | 0.00 | 0.13 | 0.03 | 97 | 1017.7 |
| 20260830100510 | 73 | 24 | 0.9 | 2.6 | 0.00 | 0.13 | 0.03 | 97 | 1017.6 |
| 20260830100028 | 73 | 83 | 0.9 | 3.5 | 0.00 | 0.13 | 0.03 | 97 | 1017.7 |
| 20260830095516 | 73 | 49 | 0.0 | 4.3 | 0.00 | 0.13 | 0.03 | 97 | 1017.7 |
| 20260830095014 | 73 | 36 | 0.0 | 4.3 | 0.01 | 0.13 | 0.03 | 97 | 1017.7 |
| 20260830094530 | 73 | 59 | 1.7 | 5.2 | 0.01 | 0.13 | 0.03 | 97 | 1017.6 |
| 20260830094013 | 73 | 69 | 1.7 | 5.2 | 0.01 | 0.13 | 0.03 | 97 | 1017.6 |
| 20260830093501 | 73 | 90 | 1.7 | 5.2 | 0.01 | 0.13 | 0.03 | 97 | 1017.6 |
| 20260830093010 | 73 | 70 | 2.6 | 5.2 | 0.01 | 0.13 | 0.03 | 97 | 1017.6 |
| 20260830092506 | 73 | 80 | 1.7 | 3.5 | 0.01 | 0.13 | 0.03 | 97 | 1017.5 |
| 20260830092007 | 73 | 81 | 0.0 | 4.3 | 0.01 | 0.13 | 0.03 | 97 | 1017.5 |
| 20260830091519 | 73 | 28 | 1.7 | 4.3 | 0.01 | 0.13 | 0.03 | 97 | 1017.6 |
| 20260830091009 | 73 | 115 | 2.6 | 4.3 | 0.01 | 0.13 | 0.03 | 97 | 1017.7 |
| 20260830090510 | 73 | 75 | 2.6 | 3.5 | 0.01 | 0.13 | 0.03 | 97 | 1017.7 |
| 20260830090026 | 73 | 120 | 1.7 | 2.6 | 0.01 | 0.13 | 0.03 | 97 | 1017.7 |
| 20260830085512 | 73 | 73 | 1.7 | 2.6 | 0.01 | 0.13 | 0.03 | 97 | 1017.7 |
| 20260830085016 | 73 | 45 | 0.9 | 2.6 | 0.00 | 0.12 | 0.02 | 97 | 1017.7 |
| 20260830084528 | 73 | 76 | 0.0 | 2.6 | 0.00 | 0.12 | 0.02 | 97 | 1017.6 |
| 20260830084015 | 73 | 38 | 0.9 | 2.6 | 0.00 | 0.12 | 0.02 | 97 | 1017.6 |
| 20260830083517 | 73 | 51 | 0.0 | 1.7 | 0.00 | 0.12 | 0.02 | 97 | 1017.5 |
| 20260830083036 | 73 | 67 | 0.0 | 1.7 | 0.00 | 0.12 | 0.02 | 97 | 1017.5 |
| 20260830082507 | 73 | 65 | 0.9 | 1.7 | 0.00 | 0.12 | 0.02 | 97 | 1017.4 |
| 20260830082005 | 73 | 35 | 0.0 | 0.0 | 0.00 | 0.12 | 0.02 | 97 | 1017.4 |
| 20260830081517 | 73 | 30 | 0.0 | 0.0 | 0.00 | 0.12 | 0.02 | 97 | 1017.4 |
| 20260830081008 | 73 | 42 | 0.0 | 0.9 | 0.00 | 0.12 | 0.02 | 97 | 1017.4 |
| 20260830080511 | 73 | 41 | 0.0 | 0.9 | 0.01 | 0.12 | 0.02 | 97 | 1017.4 |
| 20260830080025 | 73 | 38 | 0.0 | 0.0 | 0.01 | 0.12 | 0.02 | 97 | 1017.6 |
| 20260830075512 | 72 | 61 | 0.0 | 0.0 | 0.01 | 0.12 | 0.02 | 97 | 1017.6 |
| 20260830075012 | 72 | 28 | 0.0 | 0.0 | 0.01 | 0.12 | 0.02 | 97 | 1017.5 |
| 20260830074528 | 72 | 76 | 0.0 | 0.0 | 0.01 | 0.12 | 0.02 | 97 | 1017.6 |
| 20260830074013 | 72 | 76 | 0.0 | 0.0 | 0.01 | 0.12 | 0.02 | 97 | 1017.7 |
| 20260830073514 | 72 | 76 | 0.0 | 0.0 | 0.01 | 0.12 | 0.02 | 97 | 1017.6 |
| 20260830073031 | 72 | 76 | 0.0 | 0.0 | 0.01 | 0.12 | 0.02 | 97 | 1017.6 |
| 20260830072517 | 72 | 27 | 0.0 | 0.0 | 0.01 | 0.12 | 0.02 | 97 | 1017.7 |
| 20260830072015 | 72 | 27 | 0.0 | 0.0 | 0.01 | 0.12 | 0.02 | 97 | 1017.7 |
| 20260830071517 | 72 | 27 | 0.0 | 0.0 | 0.01 | 0.12 | 0.02 | 97 | 1017.7 |
| 20260830071007 | 72 | 27 | 0.0 | 0.0 | 0.01 | 0.12 | 0.02 | 97 | 1017.7 |
| 20260830070506 | 72 | 27 | 0.0 | 1.7 | 0.00 | 0.11 | 0.01 | 97 | 1017.7 |
| 20260830070023 | 72 | 27 | 0.0 | 1.7 | 0.00 | 0.11 | 0.01 | 97 | 1017.7 |
| 20260830065512 | 72 | 332 | 0.0 | 0.0 | 0.00 | 0.11 | 0.01 | 97 | 1017.7 |
| 20260830065011 | 73 | 332 | 0.0 | 0.0 | 0.01 | 0.11 | 0.01 | 96 | 1017.7 |
| 20260830064526 | 73 | 332 | 0.0 | 0.0 | 0.01 | 0.11 | 0.01 | 96 | 1017.8 |
| 20260830064012 | 73 | 332 | 0.0 | 0.0 | 0.01 | 0.11 | 0.01 | 96 | 1017.8 |
| 20260830063514 | 73 | 332 | 0.0 | 1.7 | 0.01 | 0.11 | 0.01 | 97 | 1017.7 |
| 20260830063031 | 73 | 331 | 0.0 | 2.6 | 0.01 | 0.11 | 0.01 | 97 | 1017.7 |
| 20260830062516 | 73 | 342 | 1.7 | 2.6 | 0.01 | 0.11 | 0.01 | 97 | 1017.6 |
| 20260830062014 | 73 | 342 | 1.7 | 2.6 | 0.01 | 0.11 | 0.01 | 96 | 1017.6 |
| 20260830061532 | 73 | 330 | 1.7 | 2.6 | 0.01 | 0.11 | 0.01 | 96 | 1017.7 |
| 20260830061018 | 73 | 329 | 0.9 | 2.6 | 0.01 | 0.11 | 0.01 | 96 | 1017.7 |
| 20260830060506 | 73 | 313 | 1.7 | 3.5 | 0.01 | 0.11 | 0.01 | 96 | 1017.8 |
| 20260830060016 | 73 | 320 | 2.6 | 3.5 | 0.01 | 0.11 | 0.01 | 96 | 1017.8 |
| 20260830055509 | 74 | 327 | 0.0 | 1.7 | 0.01 | 0.11 | 0.01 | 96 | 1017.9 |
| 20260830055010 | 74 | 313 | 0.0 | 0.0 | 0.00 | 0.10 | 0.00 | 96 | 1017.9 |
| 20260830054528 | 74 | 313 | 0.0 | 0.0 | 0.00 | 0.10 | 0.00 | 96 | 1017.9 |
| 20260830054013 | 74 | 76 | 0.0 | 0.0 | 0.00 | 0.10 | 0.00 | 97 | 1018.1 |
| 20260830053514 | 74 | 76 | 0.0 | 0.0 | 0.00 | 0.10 | 0.00 | 97 | 1018.2 |
| 20260830053030 | 74 | 76 | 0.0 | 0.0 | 0.01 | 0.10 | 0.00 | 97 | 1018.3 |
| 20260830052514 | 74 | 76 | 0.0 | 0.0 | 0.01 | 0.10 | 0.00 | 97 | 1018.4 |
| 20260830052013 | 74 | 76 | 0.0 | 0.0 | 0.01 | 0.10 | 0.00 | 97 | 1018.4 |
| 20260830051542 | 74 | 76 | 0.0 | 0.0 | 0.01 | 0.10 | 0.00 | 97 | 1018.5 |
| 20260830051018 | 74 | 76 | 0.0 | 0.0 | 0.01 | 0.10 | 0.00 | 97 | 1018.5 |
| 20260830050519 | 74 | 76 | 0.0 | 0.0 | 0.01 | 0.10 | 0.00 | 96 | 1018.7 |
| 20260830050032 | 74 | 76 | 0.0 | 0.0 | 0.01 | 0.10 | 0.00 | 96 | 1018.7 |
| 20260830045508 | 74 | 76 | 0.0 | 0.0 | 0.01 | 0.10 | 0.10 | 97 | 1018.8 |
| 20260830045008 | 74 | 76 | 0.0 | 0.0 | 0.01 | 0.10 | 0.10 | 97 | 1018.8 |
| 20260830044523 | 74 | 76 | 0.0 | 0.0 | 0.01 | 0.10 | 0.10 | 97 | 1018.9 |
| 20260830044015 | 74 | 76 | 0.0 | 0.0 | 0.01 | 0.10 | 0.10 | 96 | 1019.2 |
| 20260830043512 | 74 | 76 | 0.0 | 0.0 | 0.01 | 0.10 | 0.10 | 97 | 1019.2 |
| 20260830043028 | 74 | 76 | 0.0 | 0.0 | 0.01 | 0.09 | 0.09 | 96 | 1019.2 |
| 20260830042514 | 74 | 76 | 0.0 | 0.0 | 0.01 | 0.09 | 0.09 | 96 | 1019.3 |